Weather in Kikino

Russia / Penza Oblast     53°08′19″N   43°46′16″E
temp.,
°C
wind,
m/s
gust,
m/s
humid.,
%
clouds,
%
prec.,
mm/h
press.,
hPa
HPBL,
m
22 october, fri
fri2200:00+10sw81873100 0.0 1005590
03:00+10sw91774100 0.0 1004652
06:00+8sw91869100 0.0 1003616
09:00+9sw91769100 0.0 1003684
12:00+12sw91566100 0.0 1004819
15:00+12wsw81569100 0.0 1005979
18:00+11wsw8157255 0.0 1006759
21:00+10wsw615749 0.0 1008553
23 october, sat
sat2300:00+9wsw613795 0.0 1009442
03:00+8wsw613765 0.0 1010384
06:00+6sw513740 0.0 1010349
09:00+8sw612665 0.0 1011708
12:00+11wsw8164297 0.0 10111553
15:00+12sw6144584 0.0 10101648
18:00+9s3772100 0.3 1009248
21:00+9w611713 0.7 1010639
24 october, sun
sun2400:00+5wsw411690 0.0 1011356
03:00+4wsw410785 0.0 1012358
06:00+3wsw511915 0.0 1013417
09:00+4wsw698186 0.0 1014637
12:00+7wsw795917 0.0 10141113
15:00+7wsw695687 0.1 10131450
18:00+5w477499 0.3 1014719
21:00+4w3683100 0.4 1014470
25 october, mon
mon2500:00+2nw3596100 0.0 1015346
03:00+2nw4793100 0.1 1016447
06:00+1nw489096 0.1 1018477
09:00+1nnw61092100 0.3 1020748
12:00+3nnw81072100 0.1 10221061
15:00+2nnw7107092 0.1 1024911
18:000nnw611635 0.0 1027592
21:00−1nnw41073100 0.0 1029357
26 october, tue
tue2600:00−2nw388318 0.0 1030194
03:00−3wnw368167 0.0 1031128
06:00−2w3878100 0.0 1031208
09:000w510615 0.0 1030392
12:00+4w694117 0.0 1029711
15:00+4wsw6104267 0.0 1027752
18:00+2wsw513536 0.0 1027386
21:00+1wsw5135866 0.0 1026356